Vernal, UT

5:22 PM MST on November 21, 2019 (GMT -0700)
Vernal

Weather History for KVEL - June, 2019

Change the Weather History Date:

Friday, June 7, 2019

  Actual Average Record
Temperature  
Mean Temperature 67 °F 63 °F  
Max Temperature 84 °F 77 °F 95 °F (1985)
Min Temperature 50 °F 48 °F 33 °F (1928)
Degree Days  
Heating Degree Days 0 4  
Month to date heating degree days 9 30  
Since 1 June heating degree days 9 30  
Since 1 July heating degree days 7490 7178  
Cooling Degree Days 2 2  
Month to date cooling degree days 3 9  
Year to date cooling degree days 4 18  
Since 1 June cooling degree days 3 9  
Growing Degree Days 17 (Base 50)    
Moisture  
Dew Point 40 °F    
Average Humidity 41    
Maximum Humidity 77    
Minimum Humidity 17    
Precipitation  
Precipitation T in 0.03 in 0.56 in (1941)
Month to date precipitation T 0.21  
Year to date precipitation 7.42 3.62  
Sea Level Pressure  
Sea Level Pressure 29.69 in    
Wind  
Wind Speed 5 mph ()    
Max Wind Speed 26 mph    
Max Gust Speed 38 mph    
Visibility 10.0 miles    
Events      
T = Trace of Precipitation, MM = Missing Value Source: Averaged Metar Reports

Daily Weather History Graph

Daily Weather History Graph

Search for Another Location

Airport or City:

Astronomy

Jun. 07, 2019 Rise Set
Actual Time 5:48 AM MDT 8:46 PM MDT
Civil Twilight 5:15 AM MDT 9:18 PM MDT
Nautical Twilight 4:33 AM MDT 10:00 PM MDT
Astronomical Twilight 3:45 AM MDT 10:49 PM MDT
Moon 10:09 AM MDT (6/7) 12:05 AM MDT (6/7)
Length of Visible Light 16h 03m
Length of Day
14h 58m
Waxing Crescent, 23% of the Moon is Illuminated
Jun 7
Waxing Crescent
Jun 10
First Quarter
Jun 17
Full
Jun 25
Last Quarter
Jul 2
New

Hourly Weather History & Observations

Time (MDT) Temp. Dew Point Humidity Pressure Visibility Wind Dir Wind Speed Gust Speed Precip Events Conditions
12:53 AM 57.9 °F 46.0 °F 65% 29.78 in 10.0 mi Calm Calm - N/A   Clear
1:53 AM 55.9 °F 45.0 °F 67% 29.78 in 10.0 mi WNW 3.5 mph - N/A   Clear
2:53 AM 54.0 °F 44.1 °F 69% 29.78 in 10.0 mi WNW 5.8 mph - N/A   Clear
3:53 AM 57.0 °F 43.0 °F 59% 29.78 in 10.0 mi Calm Calm - N/A   Clear
4:53 AM 52.0 °F 44.1 °F 74% 29.78 in 10.0 mi WSW 3.5 mph - N/A   Clear
5:53 AM 53.1 °F 44.1 °F 71% 29.79 in 10.0 mi Calm Calm - N/A   Partly Cloudy
6:53 AM 54.0 °F 45.0 °F 72% 29.79 in 10.0 mi Calm Calm - N/A   Clear
7:53 AM 62.1 °F 46.0 °F 56% 29.78 in 10.0 mi Calm Calm - N/A   Clear
8:53 AM 64.9 °F 48.0 °F 54% 29.77 in 10.0 mi Calm Calm - N/A   Clear
9:53 AM 66.9 °F 48.0 °F 51% 29.75 in 10.0 mi SSE 3.5 mph - N/A   Partly Cloudy
10:53 AM 71.1 °F 48.0 °F 44% 29.74 in 10.0 mi Calm Calm - N/A   Partly Cloudy
11:53 AM 73.0 °F 50.0 °F 44% 29.73 in 10.0 mi South 4.6 mph - N/A   Clear
12:53 PM 75.9 °F 46.0 °F 35% 29.70 in 10.0 mi SW 11.5 mph 20.7 mph N/A   Clear
1:53 PM 80.1 °F 42.1 °F 26% 29.66 in 10.0 mi SW 13.8 mph 21.9 mph N/A   Clear
2:53 PM 82.0 °F 37.0 °F 20% 29.64 in 10.0 mi SSW 19.6 mph 28.8 mph N/A   Partly Cloudy
3:53 PM 82.9 °F 33.1 °F 17% 29.60 in 10.0 mi SSW 23.0 mph 38.0 mph N/A   Partly Cloudy
4:53 PM 82.9 °F 33.1 °F 17% 29.60 in 10.0 mi SSW 20.7 mph 31.1 mph N/A   Partly Cloudy
5:53 PM 80.1 °F 33.1 °F 18% 29.59 in 10.0 mi SSW 15.0 mph 24.2 mph N/A   Partly Cloudy
6:53 PM 78.1 °F 32.0 °F 19% 29.60 in 10.0 mi SSW 15.0 mph - N/A   Mostly Cloudy
7:53 PM 77.0 °F 36.0 °F 23% 29.58 in 10.0 mi WSW 11.5 mph - 0.00 in   Partly Cloudy
8:53 PM 71.1 °F 35.1 °F 27% 29.60 in 10.0 mi WSW 9.2 mph - N/A   Clear
9:53 PM 72.0 °F 30.0 °F 21% 29.60 in 10.0 mi WSW 12.7 mph 20.7 mph N/A   Partly Cloudy
10:53 PM 72.0 °F 28.0 °F 20% 29.61 in 10.0 mi West 16.1 mph 26.5 mph N/A   Clear
11:53 PM 66.9 °F 30.0 °F 25% 29.61 in 10.0 mi SSW 9.2 mph - N/A   Clear